| time (UTC) | temp C | wind direction | speed KPH | gust KPH | rain 1hr cm | rain 24hr cm | rain mn cm | humidity % | barometer mb |
| 20260508044025 | 13 | 86 | 0.0 | 1.6 | 0.00 | 0.00 | 0.00 | 27 | 1021.8 |
| 20260508043555 | 13 | 85 | 0.0 | 1.6 | 0.00 | 0.00 | 0.00 | 28 | 1021.8 |
| 20260508043046 | 13 | 85 | 0.0 | 1.6 | 0.00 | 0.00 | 0.00 | 28 | 1021.8 |
| 20260508042600 | 14 | 98 | 0.0 | 1.6 | 0.00 | 0.00 | 0.00 | 28 | 1021.8 |
| 20260508042048 | 14 | 75 | 0.0 | 1.6 | 0.00 | 0.00 | 0.00 | 28 | 1021.8 |
| 20260508041526 | 14 | 74 | 0.0 | 1.6 | 0.00 | 0.00 | 0.00 | 27 | 1021.8 |
| 20260508041038 | 15 | 74 | 0.0 | 1.6 | 0.00 | 0.00 | 0.00 | 27 | 1021.8 |
| 20260508040550 | 15 | 83 | 0.0 | 1.6 | 0.00 | 0.00 | 0.00 | 26 | 1021.8 |
| 20260508040042 | 15 | 101 | 0.0 | 1.6 | 0.00 | 0.00 | 0.00 | 26 | 1021.7 |
| 20260508035525 | 15 | 72 | 0.0 | 1.6 | 0.00 | 0.00 | 0.00 | 25 | 1021.7 |
| 20260508035034 | 15 | 73 | 0.0 | 3.2 | 0.00 | 0.00 | 0.00 | 25 | 1021.7 |
| 20260508034547 | 16 | 55 | 1.6 | 3.2 | 0.00 | 0.00 | 0.00 | 24 | 1021.7 |
| 20260508034049 | 15 | 245 | 1.6 | 3.2 | 0.00 | 0.00 | 0.00 | 24 | 1021.6 |
| 20260508033520 | 16 | 86 | 0.0 | 3.2 | 0.00 | 0.00 | 0.00 | 24 | 1021.5 |
| 20260508033021 | 16 | 50 | 0.0 | 3.2 | 0.00 | 0.00 | 0.00 | 23 | 1021.4 |
| 20260508032535 | 16 | 95 | 0.0 | 1.6 | 0.00 | 0.00 | 0.00 | 22 | 1021.2 |
| 20260508032025 | 16 | 91 | 0.0 | 1.6 | 0.00 | 0.00 | 0.00 | 22 | 1021.2 |
| 20260508031528 | 16 | 91 | 0.0 | 1.6 | 0.00 | 0.00 | 0.00 | 21 | 1021.0 |
| 20260508031020 | 16 | 91 | 0.0 | 3.2 | 0.00 | 0.00 | 0.00 | 22 | 1020.9 |
| 20260508030523 | 17 | 23 | 1.6 | 3.2 | 0.00 | 0.00 | 0.00 | 21 | 1020.9 |
| 20260508030034 | 17 | 155 | 0.0 | 0.0 | 0.00 | 0.00 | 0.00 | 20 | 1020.7 |
| 20260508025528 | 17 | 155 | 0.0 | 0.0 | 0.00 | 0.00 | 0.00 | 20 | 1020.7 |
| 20260508025054 | 17 | 155 | 0.0 | 0.0 | 0.00 | 0.00 | 0.00 | 20 | 1020.7 |
| 20260508024536 | 17 | 155 | 0.0 | 0.0 | 0.00 | 0.00 | 0.00 | 20 | 1020.6 |
| 20260508024028 | 17 | 155 | 0.0 | 0.0 | 0.00 | 0.00 | 0.00 | 20 | 1020.6 |
| 20260508023541 | 18 | 155 | 0.0 | 0.0 | 0.00 | 0.00 | 0.00 | 19 | 1020.5 |
| 20260508023023 | 18 | 155 | 0.0 | 0.0 | 0.00 | 0.00 | 0.00 | 18 | 1020.5 |
| 20260508022536 | 19 | 155 | 0.0 | 0.0 | 0.00 | 0.00 | 0.00 | 17 | 1020.4 |
| 20260508022048 | 19 | 155 | 0.0 | 3.2 | 0.00 | 0.00 | 0.00 | 16 | 1020.3 |
| 20260508021528 | 20 | 186 | 1.6 | 3.2 | 0.00 | 0.00 | 0.00 | 15 | 1020.2 |
| 20260508021100 | 20 | 200 | 0.0 | 1.6 | 0.00 | 0.00 | 0.00 | 15 | 1020.2 |
| 20260508020529 | 20 | 203 | 0.0 | 4.8 | 0.00 | 0.00 | 0.00 | 14 | 1020.1 |
| 20260508020031 | 21 | 210 | 0.0 | 6.4 | 0.00 | 0.00 | 0.00 | 14 | 1020.1 |
| 20260508015545 | 21 | 179 | 3.2 | 6.4 | 0.00 | 0.00 | 0.00 | 14 | 1020.1 |
| 20260508015034 | 21 | 206 | 1.6 | 9.7 | 0.00 | 0.00 | 0.00 | 13 | 1020.0 |
| 20260508014546 | 21 | 207 | 4.8 | 9.7 | 0.00 | 0.00 | 0.00 | 13 | 1019.9 |
| 20260508014029 | 21 | 241 | 3.2 | 6.4 | 0.00 | 0.00 | 0.00 | 13 | 1019.8 |
| 20260508013520 | 21 | 215 | 3.2 | 6.4 | 0.00 | 0.00 | 0.00 | 13 | 1019.8 |
| 20260508013048 | 22 | 238 | 3.2 | 6.4 | 0.00 | 0.00 | 0.00 | 13 | 1019.8 |
| 20260508012539 | 22 | 202 | 1.6 | 6.4 | 0.00 | 0.00 | 0.00 | 13 | 1019.7 |
| 20260508012048 | 22 | 215 | 4.8 | 11.3 | 0.00 | 0.00 | 0.00 | 12 | 1019.7 |
| 20260508011531 | 22 | 196 | 6.4 | 11.3 | 0.00 | 0.00 | 0.00 | 12 | 1019.7 |
| 20260508011042 | 23 | 238 | 4.8 | 9.7 | 0.00 | 0.00 | 0.00 | 12 | 1019.7 |
| 20260508010532 | 23 | 212 | 4.8 | 9.7 | 0.00 | 0.00 | 0.00 | 12 | 1019.7 |
| 20260508010035 | 23 | 181 | 4.8 | 11.3 | 0.00 | 0.00 | 0.00 | 11 | 1019.6 |
| 20260508005529 | 23 | 196 | 8.0 | 11.3 | 0.00 | 0.00 | 0.00 | 11 | 1019.7 |
| 20260508005057 | 23 | 210 | 6.4 | 11.3 | 0.00 | 0.00 | 0.00 | 11 | 1019.6 |
| 20260508004548 | 23 | 180 | 6.4 | 11.3 | 0.00 | 0.00 | 0.00 | 11 | 1019.6 |
| 20260508004030 | 23 | 275 | 6.4 | 11.3 | 0.00 | 0.00 | 0.00 | 11 | 1019.5 |
| 20260508003522 | 23 | 215 | 4.8 | 12.9 | 0.00 | 0.00 | 0.00 | 11 | 1019.7 |
| 20260508003024 | 23 | 244 | 4.8 | 12.9 | 0.00 | 0.00 | 0.00 | 11 | 1019.7 |
| 20260508002531 | 23 | 231 | 3.2 | 8.0 | 0.00 | 0.00 | 0.00 | 11 | 1019.6 |
| 20260508002021 | 23 | 259 | 1.6 | 8.0 | 0.00 | 0.00 | 0.00 | 11 | 1019.6 |
| 20260508001523 | 23 | 240 | 3.2 | 12.9 | 0.00 | 0.00 | 0.00 | 11 | 1019.7 |
| 20260508001035 | 23 | 198 | 6.4 | 12.9 | 0.00 | 0.00 | 0.00 | 10 | 1019.7 |
| 20260508000527 | 23 | 201 | 4.8 | 8.0 | 0.00 | 0.00 | 0.00 | 10 | 1019.7 |
| 20260508000029 | 23 | 341 | 1.6 | 9.7 | 0.00 | 0.00 | 0.00 | 10 | 1019.7 |
| 20260507235543 | 23 | 199 | 6.4 | 12.9 | 0.00 | 0.00 | 0.00 | 10 | 1019.7 |
| 20260507235032 | 23 | 231 | 6.4 | 12.9 | 0.00 | 0.00 | 0.00 | 10 | 1019.8 |
| 20260507234543 | 23 | 307 | 4.8 | 8.0 | 0.00 | 0.00 | 0.00 | 11 | 1019.8 |
| 20260507234025 | 24 | 320 | 3.2 | 4.8 | 0.00 | 0.00 | 0.00 | 10 | 1019.9 |
| 20260507233535 | 24 | 351 | 1.6 | 12.9 | 0.00 | 0.00 | 0.00 | 10 | 1019.9 |
| 20260507233025 | 23 | 254 | 4.8 | 12.9 | 0.00 | 0.00 | 0.00 | 10 | 1020.1 |
| 20260507232538 | 23 | 200 | 6.4 | 11.3 | 0.00 | 0.00 | 0.00 | 10 | 1020.1 |
| 20260507232045 | 23 | 199 | 8.0 | 11.3 | 0.00 | 0.00 | 0.00 | 10 | 1020.1 |
| 20260507231522 | 23 | 190 | 3.2 | 11.3 | 0.00 | 0.00 | 0.00 | 10 | 1020.1 |
| 20260507231033 | 23 | 219 | 6.4 | 11.3 | 0.00 | 0.00 | 0.00 | 10 | 1020.2 |
| 20260507230525 | 23 | 134 | 0.0 | 4.8 | 0.00 | 0.00 | 0.00 | 11 | 1020.3 |
| 20260507230028 | 23 | 346 | 1.6 | 12.9 | 0.00 | 0.00 | 0.00 | 11 | 1020.4 |
| 20260507225542 | 22 | 247 | 4.8 | 12.9 | 0.00 | 0.00 | 0.00 | 11 | 1020.5 |
| 20260507225021 | 23 | 254 | 1.6 | 6.4 | 0.00 | 0.00 | 0.00 | 11 | 1020.5 |
| 20260507224542 | 23 | 65 | 1.6 | 11.3 | 0.00 | 0.00 | 0.00 | 11 | 1020.5 |
| 20260507224024 | 22 | 226 | 3.2 | 11.3 | 0.00 | 0.00 | 0.00 | 10 | 1020.6 |
| 20260507223536 | 22 | 238 | 4.8 | 11.3 | 0.00 | 0.00 | 0.00 | 10 | 1020.7 |
| 20260507223039 | 22 | 326 | 6.4 | 11.3 | 0.00 | 0.00 | 0.00 | 10 | 1020.7 |
| 20260507222533 | 22 | 60 | 3.2 | 14.5 | 0.00 | 0.00 | 0.00 | 11 | 1020.8 |
| 20260507222042 | 22 | 264 | 4.8 | 17.7 | 0.00 | 0.00 | 0.00 | 10 | 1020.9 |
| 20260507221522 | 22 | 277 | 4.8 | 17.7 | 0.00 | 0.00 | 0.00 | 12 | 1020.9 |
| 20260507221034 | 22 | 264 | 3.2 | 9.7 | 0.00 | 0.00 | 0.00 | 13 | 1020.9 |
| 20260507220526 | 22 | 320 | 3.2 | 9.7 | 0.00 | 0.00 | 0.00 | 12 | 1021.1 |
| 20260507220036 | 22 | 337 | 3.2 | 16.1 | 0.00 | 0.00 | 0.00 | 12 | 1021.2 |
| 20260507215537 | 22 | 216 | 8.0 | 16.1 | 0.00 | 0.00 | 0.00 | 12 | 1021.3 |
| 20260507215026 | 21 | 218 | 4.8 | 12.9 | 0.00 | 0.00 | 0.00 | 13 | 1021.3 |
| 20260507214528 | 21 | 200 | 3.2 | 16.1 | 0.00 | 0.00 | 0.00 | 13 | 1021.5 |
| 20260507214040 | 21 | 281 | 9.7 | 16.1 | 0.00 | 0.00 | 0.00 | 13 | 1021.6 |
| 20260507213532 | 21 | 46 | 3.2 | 16.1 | 0.00 | 0.00 | 0.00 | 13 | 1021.6 |
| 20260507213104 | 21 | 224 | 4.8 | 16.1 | 0.00 | 0.00 | 0.00 | 15 | 1021.8 |
| 20260507212527 | 21 | 293 | 4.8 | 11.3 | 0.00 | 0.00 | 0.00 | 15 | 1021.8 |
| 20260507212036 | 21 | 63 | 3.2 | 6.4 | 0.00 | 0.00 | 0.00 | 15 | 1021.9 |
| 20260507211547 | 21 | 278 | 0.0 | 8.0 | 0.00 | 0.00 | 0.00 | 15 | 1022.1 |
| 20260507211030 | 21 | 293 | 3.2 | 12.9 | 0.00 | 0.00 | 0.00 | 16 | 1022.2 |
| 20260507210542 | 21 | 262 | 6.4 | 14.5 | 0.00 | 0.00 | 0.00 | 16 | 1022.3 |
| 20260507210053 | 21 | 285 | 6.4 | 14.5 | 0.00 | 0.00 | 0.00 | 17 | 1022.3 |
| 20260507205536 | 21 | 288 | 3.2 | 8.0 | 0.00 | 0.00 | 0.00 | 16 | 1022.4 |
| 20260507205025 | 21 | 208 | 3.2 | 14.5 | 0.00 | 0.00 | 0.00 | 16 | 1022.6 |
| 20260507204536 | 20 | 244 | 1.6 | 14.5 | 0.00 | 0.00 | 0.00 | 17 | 1022.7 |
| 20260507204048 | 21 | 307 | 4.8 | 9.7 | 0.00 | 0.00 | 0.00 | 15 | 1022.8 |
| 20260507203530 | 20 | 193 | 1.6 | 9.7 | 0.00 | 0.00 | 0.00 | 17 | 1022.8 |
| 20260507203038 | 20 | 359 | 3.2 | 11.3 | 0.00 | 0.00 | 0.00 | 16 | 1022.9 |
| 20260507202541 | 20 | 191 | 4.8 | 11.3 | 0.00 | 0.00 | 0.00 | 17 | 1023.0 |
| 20260507202032 | 20 | 316 | 4.8 | 11.3 | 0.00 | 0.00 | 0.00 | 18 | 1023.1 |
| 20260507201543 | 19 | 126 | 3.2 | 12.9 | 0.00 | 0.00 | 0.00 | 17 | 1023.1 |
| 20260507201045 | 19 | 40 | 6.4 | 14.5 | 0.00 | 0.00 | 0.00 | 17 | 1023.2 |
| 20260507200536 | 19 | 18 | 8.0 | 14.5 | 0.00 | 0.00 | 0.00 | 19 | 1023.3 |
| 20260507200028 | 19 | 326 | 9.7 | 14.5 | 0.00 | 0.00 | 0.00 | 17 | 1023.3 |
| 20260507195532 | 19 | 309 | 4.8 | 11.3 | 0.00 | 0.00 | 0.00 | 19 | 1023.4 |
| 20260507195022 | 19 | 111 | 3.2 | 11.3 | 0.00 | 0.00 | 0.00 | 19 | 1023.4 |
| 20260507194525 | 19 | 251 | 3.2 | 8.0 | 0.00 | 0.00 | 0.00 | 21 | 1023.6 |
| 20260507194035 | 19 | 172 | 3.2 | 6.4 | 0.00 | 0.00 | 0.00 | 22 | 1023.6 |
| 20260507193527 | 18 | 225 | 1.6 | 9.7 | 0.00 | 0.00 | 0.00 | 23 | 1023.7 |
| 20260507193059 | 18 | 214 | 3.2 | 9.7 | 0.00 | 0.00 | 0.00 | 23 | 1023.8 |
| 20260507192522 | 18 | 304 | 0.0 | 6.4 | 0.00 | 0.00 | 0.00 | 23 | 1023.9 |
| 20260507192033 | 18 | 12 | 4.8 | 9.7 | 0.00 | 0.00 | 0.00 | 24 | 1024.0 |
| 20260507191546 | 17 | 226 | 4.8 | 9.7 | 0.00 | 0.00 | 0.00 | 25 | 1024.0 |
| 20260507191028 | 18 | 241 | 6.4 | 9.7 | 0.00 | 0.00 | 0.00 | 23 | 1024.3 |
| 20260507190539 | 18 | 259 | 4.8 | 9.7 | 0.00 | 0.00 | 0.00 | 23 | 1024.3 |
| 20260507190045 | 18 | 153 | 3.2 | 11.3 | 0.00 | 0.00 | 0.00 | 24 | 1024.4 |
| 20260507185525 | 17 | 202 | 4.8 | 14.5 | 0.00 | 0.00 | 0.00 | 24 | 1024.4 |
| 20260507185035 | 17 | 210 | 8.0 | 14.5 | 0.00 | 0.00 | 0.00 | 25 | 1024.6 |
| 20260507184545 | 17 | 283 | 3.2 | 9.7 | 0.00 | 0.00 | 0.00 | 25 | 1024.7 |
| 20260507184026 | 17 | 47 | 4.8 | 9.7 | 0.00 | 0.00 | 0.00 | 25 | 1024.8 |
| 20260507183538 | 17 | 16 | 3.2 | 11.3 | 0.00 | 0.00 | 0.00 | 26 | 1024.9 |
| 20260507183029 | 17 | 248 | 3.2 | 11.3 | 0.00 | 0.00 | 0.00 | 26 | 1025.0 |
| 20260507182542 | 17 | 224 | 1.6 | 8.0 | 0.00 | 0.00 | 0.00 | 26 | 1025.0 |
| 20260507182042 | 16 | 300 | 1.6 | 9.7 | 0.00 | 0.00 | 0.00 | 26 | 1025.2 |
| 20260507181602 | 16 | 86 | 4.8 | 11.3 | 0.00 | 0.00 | 0.00 | 26 | 1025.2 |
| 20260507181023 | 16 | 271 | 1.6 | 11.3 | 0.00 | 0.00 | 0.00 | 27 | 1025.3 |
| 20260507180535 | 16 | 297 | 3.2 | 9.7 | 0.00 | 0.00 | 0.00 | 27 | 1025.3 |
| 20260507175526 | 16 | 283 | 1.6 | 12.9 | 0.00 | 0.00 | 0.00 | 29 | 1025.5 |
| 20260507175034 | 16 | 270 | 6.4 | 12.9 | 0.00 | 0.00 | 0.00 | 28 | 1025.6 |
| 20260507174547 | 16 | 304 | 3.2 | 11.3 | 0.00 | 0.00 | 0.00 | 31 | 1025.6 |
| 20260507174038 | 16 | 54 | 4.8 | 8.0 | 0.00 | 0.00 | 0.00 | 30 | 1025.6 |
| 20260507173549 | 15 | 311 | 3.2 | 8.0 | 0.00 | 0.00 | 0.00 | 30 | 1025.6 |
| 20260507173029 | 15 | 11 | 3.2 | 8.0 | 0.00 | 0.00 | 0.00 | 33 | 1025.7 |
| 20260507172542 | 15 | 323 | 3.2 | 8.0 | 0.00 | 0.00 | 0.00 | 32 | 1025.8 |
| 20260507172050 | 15 | 321 | 3.2 | 6.4 | 0.00 | 0.00 | 0.00 | 29 | 1025.9 |
| 20260507171541 | 15 | 338 | 1.6 | 4.8 | 0.00 | 0.00 | 0.00 | 31 | 1025.9 |
| 20260507171023 | 15 | 266 | 3.2 | 4.8 | 0.00 | 0.00 | 0.00 | 31 | 1026.1 |
| 20260507170554 | 15 | 232 | 1.6 | 8.0 | 0.00 | 0.00 | 0.00 | 31 | 1026.2 |
| 20260507170045 | 14 | 214 | 3.2 | 8.0 | 0.00 | 0.00 | 0.00 | 31 | 1026.2 |
| 20260507165529 | 14 | 283 | 3.2 | 8.0 | 0.00 | 0.00 | 0.00 | 31 | 1026.3 |
| 20260507165033 | 13 | 337 | 3.2 | 8.0 | 0.00 | 0.00 | 0.00 | 32 | 1026.2 |
| 20260507164525 | 13 | 58 | 4.8 | 6.4 | 0.00 | 0.00 | 0.00 | 35 | 1026.3 |
| 20260507164027 | 13 | 350 | 1.6 | 14.5 | 0.00 | 0.00 | 0.00 | 36 | 1026.3 |
| 20260507163538 | 13 | 310 | 6.4 | 14.5 | 0.00 | 0.00 | 0.00 | 36 | 1026.4 |
| 20260507163028 | 13 | 52 | 1.6 | 9.7 | 0.00 | 0.00 | 0.00 | 37 | 1026.5 |
| 20260507162532 | 13 | 323 | 3.2 | 9.7 | 0.00 | 0.00 | 0.00 | 39 | 1026.5 |
| 20260507162040 | 12 | 272 | 3.2 | 9.7 | 0.00 | 0.00 | 0.00 | 40 | 1026.5 |
| 20260507161551 | 12 | 255 | 4.8 | 9.7 | 0.00 | 0.00 | 0.00 | 40 | 1026.5 |
| 20260507161030 | 12 | 348 | 3.2 | 8.0 | 0.00 | 0.00 | 0.00 | 42 | 1026.6 |
| 20260507160521 | 12 | 64 | 3.2 | 8.0 | 0.00 | 0.00 | 0.00 | 41 | 1026.6 |
| 20260507160023 | 12 | 281 | 1.6 | 9.7 | 0.00 | 0.00 | 0.00 | 43 | 1026.6 |
| 20260507155557 | 11 | 331 | 3.2 | 9.7 | 0.00 | 0.00 | 0.00 | 44 | 1026.6 |
| 20260507155026 | 11 | 265 | 3.2 | 9.7 | 0.00 | 0.00 | 0.00 | 47 | 1026.6 |
| 20260507154538 | 11 | 333 | 4.8 | 9.7 | 0.00 | 0.00 | 0.00 | 45 | 1026.7 |
| 20260507154021 | 11 | 293 | 3.2 | 6.4 | 0.00 | 0.00 | 0.00 | 44 | 1026.8 |
| 20260507153533 | 11 | 292 | 3.2 | 6.4 | 0.00 | 0.00 | 0.00 | 47 | 1026.8 |
| 20260507153101 | 11 | 264 | 1.6 | 6.4 | 0.00 | 0.00 | 0.00 | 48 | 1026.8 |
| 20260507152524 | 10 | 331 | 0.0 | 6.4 | 0.00 | 0.00 | 0.00 | 47 | 1027.0 |
| 20260507152034 | 10 | 339 | 4.8 | 6.4 | 0.00 | 0.00 | 0.00 | 49 | 1026.8 |
| 20260507151546 | 10 | 296 | 1.6 | 9.7 | 0.00 | 0.00 | 0.00 | 50 | 1027.0 |
| 20260507151028 | 10 | 44 | 3.2 | 9.7 | 0.00 | 0.00 | 0.00 | 49 | 1027.0 |
| 20260507150601 | 10 | 304 | 0.0 | 6.4 | 0.00 | 0.00 | 0.00 | 48 | 1027.0 |
| 20260507150051 | 9 | 329 | 3.2 | 6.4 | 0.00 | 0.00 | 0.00 | 51 | 1027.0 |
| 20260507145543 | 9 | 332 | 3.2 | 6.4 | 0.00 | 0.00 | 0.00 | 51 | 1027.0 |
| 20260507145024 | 8 | 344 | 1.6 | 6.4 | 0.00 | 0.00 | 0.00 | 54 | 1027.2 |
| 20260507144535 | 8 | 338 | 1.6 | 4.8 | 0.00 | 0.00 | 0.00 | 54 | 1027.2 |
| 20260507144047 | 8 | 329 | 3.2 | 4.8 | 0.00 | 0.00 | 0.00 | 53 | 1027.2 |
| 20260507143529 | 8 | 333 | 1.6 | 4.8 | 0.00 | 0.00 | 0.00 | 52 | 1027.1 |
| 20260507143101 | 8 | 324 | 3.2 | 6.4 | 0.00 | 0.00 | 0.00 | 52 | 1027.2 |
| 20260507142553 | 7 | 339 | 3.2 | 6.4 | 0.00 | 0.00 | 0.00 | 54 | 1027.3 |
| 20260507142042 | 7 | 37 | 1.6 | 6.4 | 0.00 | 0.00 | 0.00 | 54 | 1027.3 |
| 20260507141548 | 7 | 46 | 1.6 | 8.0 | 0.00 | 0.00 | 0.00 | 56 | 1027.2 |
| 20260507141030 | 7 | 337 | 1.6 | 8.0 | 0.00 | 0.00 | 0.00 | 58 | 1027.2 |
| 20260507140521 | 7 | 307 | 1.6 | 4.8 | 0.00 | 0.00 | 0.00 | 58 | 1027.2 |
| 20260507140034 | 6 | 323 | 0.0 | 3.2 | 0.00 | 0.00 | 0.00 | 60 | 1027.2 |
| 20260507135540 | 6 | 260 | 1.6 | 3.2 | 0.00 | 0.00 | 0.00 | 61 | 1027.1 |
| 20260507135027 | 6 | 280 | 0.0 | 3.2 | 0.00 | 0.00 | 0.00 | 63 | 1027.2 |
| 20260507134520 | 6 | 252 | 1.6 | 3.2 | 0.00 | 0.00 | 0.00 | 62 | 1027.1 |
| 20260507134022 | 6 | 260 | 0.0 | 3.2 | 0.00 | 0.00 | 0.00 | 60 | 1027.1 |
| 20260507133533 | 6 | 333 | 0.0 | 3.2 | 0.00 | 0.00 | 0.00 | 60 | 1027.0 |
| 20260507133045 | 6 | 281 | 0.0 | 4.8 | 0.00 | 0.00 | 0.00 | 59 | 1027.0 |
| 20260507132528 | 6 | 271 | 1.6 | 4.8 | 0.00 | 0.00 | 0.00 | 55 | 1027.0 |
| 20260507132038 | 6 | 108 | 0.0 | 1.6 | 0.00 | 0.00 | 0.00 | 53 | 1027.0 |
| 20260507131521 | 5 | 101 | 1.6 | 1.6 | 0.00 | 0.00 | 0.00 | 54 | 1027.0 |
| 20260507131032 | 5 | 34 | 0.0 | 4.8 | 0.00 | 0.00 | 0.00 | 58 | 1027.0 |
| 20260507130544 | 3 | 34 | 0.0 | 6.4 | 0.00 | 0.00 | 0.00 | 60 | 1027.0 |
| 20260507130026 | 3 | 328 | 3.2 | 6.4 | 0.00 | 0.00 | 0.00 | 62 | 1026.9 |
| 20260507125534 | 3 | 335 | 3.2 | 4.8 | 0.00 | 0.00 | 0.00 | 63 | 1026.9 |
| 20260507125023 | 3 | 295 | 0.0 | 0.0 | 0.00 | 0.00 | 0.00 | 69 | 1026.8 |
| 20260507124555 | 2 | 295 | 0.0 | 0.0 | 0.00 | 0.00 | 0.00 | 70 | 1026.8 |
| 20260507124035 | 2 | 295 | 0.0 | 1.6 | 0.00 | 0.00 | 0.00 | 69 | 1026.8 |
| 20260507123526 | 2 | 295 | 0.0 | 1.6 | 0.00 | 0.00 | 0.00 | 70 | 1026.8 |
| 20260507123038 | 2 | 169 | 0.0 | 0.0 | 0.00 | 0.00 | 0.00 | 72 | 1026.6 |
| 20260507122523 | 2 | 169 | 0.0 | 0.0 | 0.00 | 0.00 | 0.00 | 72 | 1026.5 |
| 20260507122033 | 2 | 169 | 0.0 | 0.0 | 0.00 | 0.00 | 0.00 | 71 | 1026.5 |
| 20260507121545 | 2 | 168 | 0.0 | 1.6 | 0.00 | 0.00 | 0.00 | 71 | 1026.5 |
| 20260507121026 | 2 | 169 | 0.0 | 1.6 | 0.00 | 0.00 | 0.00 | 71 | 1026.5 |
| 20260507120558 | 2 | 169 | 0.0 | 0.0 | 0.00 | 0.00 | 0.00 | 72 | 1026.6 |
| 20260507120050 | 2 | 169 | 0.0 | 0.0 | 0.00 | 0.00 | 0.00 | 73 | 1026.6 |
| 20260507115534 | 2 | 169 | 0.0 | 0.0 | 0.00 | 0.00 | 0.00 | 73 | 1026.5 |
| 20260507115023 | 2 | 169 | 0.0 | 0.0 | 0.00 | 0.00 | 0.00 | 73 | 1026.5 |
| 20260507114526 | 2 | 169 | 0.0 | 0.0 | 0.00 | 0.00 | 0.00 | 73 | 1026.5 |
| 20260507114057 | 2 | 169 | 0.0 | 0.0 | 0.00 | 0.00 | 0.00 | 72 | 1026.5 |
| 20260507113527 | 2 | 169 | 0.0 | 0.0 | 0.00 | 0.00 | 0.00 | 71 | 1026.5 |
| 20260507113024 | 2 | 169 | 0.0 | 0.0 | 0.00 | 0.00 | 0.00 | 72 | 1026.5 |
| 20260507112606 | 2 | 169 | 0.0 | 0.0 | 0.00 | 0.00 | 0.00 | 71 | 1026.6 |
| 20260507112108 | 2 | 169 | 0.0 | 0.0 | 0.00 | 0.00 | 0.00 | 70 | 1026.5 |
| 20260507111529 | 2 | 169 | 0.0 | 0.0 | 0.00 | 0.00 | 0.00 | 70 | 1026.5 |
| 20260507111059 | 2 | 169 | 0.0 | 1.6 | 0.00 | 0.00 | 0.00 | 70 | 1026.5 |
| 20260507110550 | 2 | 169 | 0.0 | 1.6 | 0.00 | 0.00 | 0.00 | 70 | 1026.6 |
| 20260507110041 | 2 | 169 | 0.0 | 0.0 | 0.00 | 0.00 | 0.00 | 68 | 1026.6 |
| 20260507105526 | 2 | 264 | 0.0 | 0.0 | 0.00 | 0.00 | 0.00 | 66 | 1026.6 |
| 20260507105036 | 2 | 264 | 0.0 | 0.0 | 0.00 | 0.00 | 0.00 | 65 | 1026.6 |
| 20260507104549 | 3 | 264 | 0.0 | 0.0 | 0.00 | 0.00 | 0.00 | 60 | 1026.6 |
| 20260507104030 | 3 | 264 | 0.0 | 1.6 | 0.00 | 0.00 | 0.00 | 60 | 1026.6 |
| 20260507103541 | 3 | 264 | 0.0 | 1.6 | 0.00 | 0.00 | 0.00 | 59 | 1026.6 |
| 20260507103024 | 4 | 264 | 0.0 | 1.6 | 0.00 | 0.00 | 0.00 | 58 | 1026.5 |
| 20260507102537 | 4 | 264 | 0.0 | 1.6 | 0.00 | 0.00 | 0.00 | 57 | 1026.5 |
| 20260507102022 | 5 | 264 | 0.0 | 0.0 | 0.00 | 0.00 | 0.00 | 56 | 1026.5 |
| 20260507101532 | 5 | 264 | 0.0 | 1.6 | 0.00 | 0.00 | 0.00 | 53 | 1026.5 |
| 20260507101034 | 5 | 264 | 1.6 | 4.8 | 0.00 | 0.00 | 0.00 | 52 | 1026.5 |
| 20260507100526 | 5 | 271 | 1.6 | 3.2 | 0.00 | 0.00 | 0.00 | 50 | 1026.5 |
| 20260507100038 | 5 | 217 | 1.6 | 4.8 | 0.00 | 0.00 | 0.00 | 49 | 1026.5 |
| 20260507095522 | 5 | 272 | 3.2 | 4.8 | 0.00 | 0.00 | 0.00 | 48 | 1026.4 |
| 20260507095029 | 5 | 268 | 1.6 | 3.2 | 0.00 | 0.00 | 0.00 | 49 | 1026.4 |
| 20260507094542 | 5 | 220 | 1.6 | 3.2 | 0.00 | 0.00 | 0.00 | 50 | 1026.4 |
| 20260507094025 | 5 | 128 | 1.6 | 3.2 | 0.00 | 0.00 | 0.00 | 50 | 1026.3 |
| 20260507093536 | 5 | 141 | 0.0 | 1.6 | 0.00 | 0.00 | 0.00 | 49 | 1026.3 |
| 20260507093037 | 5 | 141 | 0.0 | 3.2 | 0.00 | 0.00 | 0.00 | 48 | 1026.4 |
| 20260507092530 | 5 | 150 | 1.6 | 3.2 | 0.00 | 0.00 | 0.00 | 50 | 1026.4 |
| 20260507092039 | 5 | 136 | 0.0 | 1.6 | 0.00 | 0.00 | 0.00 | 50 | 1026.4 |
| 20260507091521 | 5 | 136 | 0.0 | 1.6 | 0.00 | 0.00 | 0.00 | 49 | 1026.4 |
| 20260507091033 | 5 | 136 | 0.0 | 1.6 | 0.00 | 0.00 | 0.00 | 47 | 1026.4 |
| 20260507090536 | 5 | 124 | 1.6 | 1.6 | 0.00 | 0.00 | 0.00 | 47 | 1026.4 |
| 20260507090026 | 6 | 323 | 0.0 | 1.6 | 0.00 | 0.00 | 0.00 | 44 | 1026.2 |
| 20260507085536 | 6 | 128 | 0.0 | 1.6 | 0.00 | 0.00 | 0.00 | 43 | 1026.2 |
| 20260507085046 | 6 | 128 | 0.0 | 1.6 | 0.00 | 0.00 | 0.00 | 42 | 1026.2 |
| 20260507084527 | 6 | 128 | 0.0 | 1.6 | 0.00 | 0.00 | 0.00 | 42 | 1026.2 |
| 20260507084039 | 6 | 128 | 0.0 | 1.6 | 0.00 | 0.00 | 0.00 | 40 | 1026.1 |
| 20260507083528 | 7 | 128 | 0.0 | 1.6 | 0.00 | 0.00 | 0.00 | 39 | 1026.1 |
| 20260507083031 | 7 | 128 | 0.0 | 4.8 | 0.00 | 0.00 | 0.00 | 40 | 1026.1 |
| 20260507082524 | 7 | 40 | 1.6 | 4.8 | 0.00 | 0.00 | 0.00 | 40 | 1026.1 |
| 20260507082026 | 7 | 58 | 1.6 | 3.2 | 0.00 | 0.00 | 0.00 | 42 | 1026.0 |
| 20260507081538 | 7 | 66 | 0.0 | 1.6 | 0.00 | 0.00 | 0.00 | 40 | 1026.1 |
| 20260507081049 | 7 | 25 | 0.0 | 1.6 | 0.00 | 0.00 | 0.00 | 40 | 1026.0 |
| 20260507080540 | 7 | 25 | 0.0 | 1.6 | 0.00 | 0.00 | 0.00 | 40 | 1025.9 |
| 20260507080022 | 7 | 25 | 0.0 | 1.6 | 0.00 | 0.00 | 0.00 | 38 | 1026.0 |
| 20260507075536 | 7 | 25 | 0.0 | 1.6 | 0.00 | 0.00 | 0.00 | 40 | 1025.9 |
| 20260507075046 | 7 | 25 | 0.0 | 1.6 | 0.00 | 0.00 | 0.00 | 37 | 1025.9 |
| 20260507074529 | 7 | 25 | 0.0 | 1.6 | 0.00 | 0.00 | 0.00 | 37 | 1025.9 |
| 20260507074101 | 8 | 96 | 0.0 | 1.6 | 0.00 | 0.00 | 0.00 | 37 | 1025.9 |
| 20260507073532 | 8 | 96 | 0.0 | 1.6 | 0.00 | 0.00 | 0.00 | 37 | 1026.0 |
| 20260507073029 | 8 | 97 | 0.0 | 1.6 | 0.00 | 0.00 | 0.00 | 37 | 1025.9 |
| 20260507072523 | 8 | 101 | 0.0 | 1.6 | 0.00 | 0.00 | 0.00 | 37 | 1025.9 |
| 20260507072024 | 8 | 101 | 0.0 | 1.6 | 0.00 | 0.00 | 0.00 | 36 | 1025.8 |
| 20260507071536 | 8 | 100 | 0.0 | 1.6 | 0.00 | 0.00 | 0.00 | 36 | 1025.8 |
| 20260507071048 | 8 | 108 | 0.0 | 3.2 | 0.00 | 0.00 | 0.00 | 36 | 1025.7 |
| 20260507070531 | 8 | 108 | 1.6 | 3.2 | 0.00 | 0.00 | 0.00 | 35 | 1025.7 |
| 20260507070022 | 9 | 38 | 0.0 | 6.4 | 0.00 | 0.00 | 0.00 | 35 | 1025.6 |
| 20260507065526 | 9 | 29 | 0.0 | 8.0 | 0.00 | 0.00 | 0.00 | 35 | 1025.5 |
| 20260507065037 | 9 | 21 | 3.2 | 8.0 | 0.00 | 0.00 | 0.00 | 35 | 1025.4 |
| 20260507064528 | 9 | 14 | 3.2 | 6.4 | 0.00 | 0.00 | 0.00 | 37 | 1025.4 |
| 20260507064031 | 9 | 340 | 3.2 | 4.8 | 0.00 | 0.00 | 0.00 | 38 | 1025.4 |
| 20260507063523 | 8 | 326 | 3.2 | 4.8 | 0.00 | 0.00 | 0.00 | 40 | 1025.4 |
| 20260507063025 | 8 | 338 | 3.2 | 4.8 | 0.00 | 0.00 | 0.00 | 41 | 1025.4 |
| 20260507062539 | 8 | 46 | 1.6 | 1.6 | 0.00 | 0.00 | 0.00 | 44 | 1025.4 |
| 20260507062026 | 8 | 50 | 0.0 | 1.6 | 0.00 | 0.00 | 0.00 | 46 | 1025.5 |
| 20260507061536 | 8 | 50 | 0.0 | 0.0 | 0.00 | 0.00 | 0.00 | 45 | 1025.5 |
| 20260507061046 | 9 | 50 | 0.0 | 0.0 | 0.00 | 0.00 | 0.00 | 43 | 1025.5 |
| 20260507060528 | 9 | 50 | 0.0 | 1.6 | 0.00 | 0.00 | 0.00 | 42 | 1025.4 |
| 20260507060046 | 10 | 50 | 0.0 | 3.2 | 0.00 | 0.00 | 0.00 | 42 | 1025.4 |
| 20260507055522 | 10 | 50 | 1.6 | 3.2 | 0.00 | 0.00 | 0.00 | 41 | 1025.3 |
| 20260507055050 | 10 | 32 | 1.6 | 1.6 | 0.00 | 0.00 | 0.00 | 43 | 1025.3 |
| 20260507054541 | 10 | 30 | 0.0 | 1.6 | 0.00 | 0.00 | 0.00 | 43 | 1025.3 |
| 20260507054023 | 10 | 30 | 0.0 | 1.6 | 0.00 | 0.00 | 0.00 | 43 | 1025.3 |
| 20260507053555 | 10 | 30 | 0.0 | 1.6 | 0.00 | 0.00 | 0.00 | 43 | 1025.2 |
| 20260507053024 | 10 | 30 | 0.0 | 1.6 | 0.00 | 0.00 | 0.00 | 43 | 1025.2 |
| 20260507052536 | 11 | 30 | 0.0 | 3.2 | 0.00 | 0.00 | 0.00 | 44 | 1025.2 |
| 20260507052037 | 11 | 30 | 1.6 | 3.2 | 0.00 | 0.00 | 0.00 | 44 | 1025.1 |
| 20260507051529 | 11 | 36 | 1.6 | 3.2 | 0.00 | 0.00 | 0.00 | 45 | 1025.2 |
| 20260507051042 | 11 | 49 | 0.0 | 3.2 | 0.00 | 0.00 | 0.00 | 45 | 1025.1 |
| 20260507050544 | 11 | 41 | 1.6 | 8.0 | 0.00 | 0.00 | 0.00 | 45 | 1025.1 |
| 20260507050035 | 11 | 50 | 3.2 | 8.0 | 0.00 | 0.00 | 0.00 | 44 | 1024.9 |
| 20260507045526 | 12 | 25 | 3.2 | 6.4 | 0.00 | 0.00 | 0.00 | 44 | 1024.9 |
| 20260507045023 | 12 | 34 | 3.2 | 8.0 | 0.00 | 0.00 | 0.00 | 44 | 1024.9 |
| 20260507044554 | 12 | 33 | 3.2 | 8.0 | 0.00 | 0.00 | 0.00 | 44 | 1024.8 |